Regional Weather Roundup
Issued by NWS Upton, NY

Current Version | Previous Version | Graphics & Text | Print | Product List | Glossary Off
Versions: 1 2 3 4 5 6 7 8 9 10 11 12 13 14 15 16 17 18 19 20 21 22 23 24 25 26 27 28 29 30 31 32 33 34 35 36 37 38 39 40 41 42 43 44 45 46 47 48 49 50

719
ASUS41 KOKX 112204
RWROKX

REGIONAL WEATHER ROUNDUP
NATIONAL WEATHER SERVICE NEW YORK NY
500 PM EST THU FEB 11 2016

NOTE: "FAIR" INDICATES FEW OR NO CLOUDS BELOW 12,000 FEET WITH NO
SIGNIFICANT WEATHER AND/OR OBSTRUCTIONS TO VISIBILITY.

NYZ071-072-176-178-NJZ106-104-112300-
NEW YORK CITY METRO AREA


CITY           SKY/WX    TMP DP  RH WIND       PRES   REMARKS
CENTRAL PARK   PTCLDY    23  -3  32 MISG      30.00R
LAGUARDIA APRT MOCLDY    25   1  35 NW22G32   29.99R WCI  10
KENNEDY INTL   MOCLDY    25   0  33 W22G32    30.00R WCI  10
NEWARK/LIBERTY MOCLDY    24   2  38 W17G26    30.01R WCI  11
BRNX BOT. GARD   N/A     25   0  33 NW3       30.00R
TETERBORO      CLEAR     24  -5  27 NW16G31   29.99R WCI  11
$$

NYZ177-179-078>081-112300-
LONG ISLAND NEW YORK

CITY           SKY/WX    TMP DP  RH WIND       PRES   REMARKS
FARMINGDALE    MOCLDY    24   0  35 NW21G32   29.97R WCI   9
ISLIP          CLOUDY    23   1  38 W24G32    29.95R WCI   7
SHIRLEY        CLOUDY    23   0  36 W21G31    29.95R WCI   8
RIVERHEAD        N/A     25  -9  22 NW10      29.91R WCI  15
WESTHAMPTON    CLOUDY    22   0  38 W24G35    29.94R WCI   5
EAST HAMPTON   CLOUDY    23   2  40 NW16G29   29.89R WCI  10
MONTAUK POINT    N/A     24   3  40 W17G35    29.89R WCI  11
$$

NYZ052-065-067-112300-
HUDSON VALLEY

CITY           SKY/WX    TMP DP  RH WIND       PRES   REMARKS
WHITE PLAINS   PTCLDY    20  -2  38 W23G38    29.94R WCI   3
NEWBURGH       PTCLDY    19   0  42 NW23G37   29.95R WCI   2
MONTGOMERY     MOCLDY    19  -1  41 NW15G24   29.97R WCI   5
POUGHKEEPSIE   MOCLDY    21  -5  31 W23G32    29.98R WCI   5
ALBANY         FLURRIES  15  -1  49 W22G31    29.97R WCI  -3
$$

NJZ001-105-106-008-010-013-015-019>022-104-112300-
NEW JERSEY

CITY           SKY/WX    TMP DP  RH WIND       PRES   REMARKS
NEWARK/LIBERTY MOCLDY    24   2  38 W17G26    30.01R WCI  11
TETERBORO      CLEAR     24  -5  27 NW16G31   29.99R WCI  11
CALDWELL       PTCLDY    23  -5  29 NW17G26   30.00R WCI   9
MORRISTOWN     MOCLDY    21   1  42 NW17G28   30.00R WCI   7
SOMERVILLE     MOCLDY    23   0  36 NW12G30   30.01R WCI  12
SUSSEX         MIX PCPN  19   1  45 W12G24    29.99R WCI   7
ANDOVER          N/A     19  -5  34 NW14G22   29.99R WCI   6
TRENTON        MOCLDY    23   6  48 W10G20    30.05R WCI  12
MILLVILLE      PTCLDY    24   1  36 NW22G28   30.11R WCI   9
ATLANTIC CITY  MOCLDY    24   1  36 W21G32    30.09R WCI   9
WRIGHTSTOWN    PTCLDY    24   1  37 NW22G28   30.03R WCI   8
TOMS RIVER     CLOUDY    25   0  33 W20G33    30.05R WCI  11
BELMAR         CLOUDY    25   0  33 W20G31    30.01R WCI  11
$$

PAZ047>061-062-071-112300-
EASTERN PENNSYLVANIA

CITY           SKY/WX    TMP DP  RH WIND       PRES   REMARKS
PHILADELPHIA   MOCLDY    26  -1  31 W16G29    30.11R WCI  14
ALLENTOWN      PTCLDY    21   6  52 W17G25    30.04R WCI   7
SCRANTON       CLOUDY    17  -3  41 NW21G30   30.00R WCI   0
$$

CTZ002-004>006-009-010-012-RIZ004-006-007-MAZ004-011-015-112300-
SOUTHERN NEW ENGLAND
 IN CT

CITY           SKY/WX    TMP DP  RH WIND       PRES   REMARKS
BRADLEY INTL   PTCLDY    17  -1  45 NW20G32   29.90R WCI   1
HARTFORD       CLOUDY    20   2  45 W18G26    29.93R WCI   5
DANBURY        PTCLDY    19  -7  31 W16G26    29.93R WCI   4
WTRBRY/OXFORD  MOCLDY    19  -8  30 NW14G29   29.88R WCI   6
BRIDGEPORT     CLOUDY    22  -1  36 W26G37    29.94R WCI   5
MERIDEN        CLOUDY    22  -1  36 W15G24    29.92R WCI   9
NEW HAVEN      CLOUDY    23   0  36 NW15G29   29.93R WCI  10
CHESTER        FAIR      21   1  42 W13G26    29.88R WCI   9
GROTON         CLOUDY    22   4  46 W14G29    29.88R WCI   9
WILLIMANTIC    PTCLDY    20   3  48 NW14G24   29.89R WCI   7

 IN RI

CITY           SKY/WX    TMP DP  RH WIND       PRES   REMARKS
PROVIDENCE     MOCLDY    21   1  41 W17G29    29.85R WCI   7
BLOCK ISLAND   CLOUDY    25   1  36 NW17G28   29.84R WCI  11
WESTERLY       PTCLDY    21   6  52 W10G18    29.87R WCI  10

 IN MA

CITY           SKY/WX    TMP DP  RH WIND       PRES   REMARKS
BOSTON         PTCLDY    22   1  40 W20G31    29.80R WCI   7
WORCESTER      CLOUDY    14  -4  44 W18G29    29.77R WCI  -3
WESTFIELD      CLOUDY    15  -2  46 NW20G31   29.91R WCI  -2
PROVINCETOWN   MOCLDY    25   7  46 W20G29    29.76R WCI  11
NANTUCKET      CLOUDY    26   3  37 W17G28    29.79R WCI  13
$$

ANZ330-335-338-340-345-350-353-355-112300-
COASTAL MARINE OBSERVATIONS


STATION/POSITION TIME  SKY/WX   TEMP    WIND        PRES    VSBY  WAVE
                                AIR SEA DIR/SP/G                  HT/PER
                 (UTC)          (F)     (DEG/KT/KT) (MB)    (MI)  (FT/S)
NY HARB ENTRANCE 2050            27 43  280/ 29/ 35 1013.8          5/ 5
4S FIRE IS       NOT AVBL
20S FIRE ISLAND  2050            26 44  300/ 29/ 37 1013.0          8/ 6
GREAT SOUTH BAY  NOT AVBL
23SW MTP         2150            27 45  280/ 27/ 35 1011.4          9/ 7
HUDSON CANYON    2150            29 48              1014.1         12/ 7
KINGS POINT      2100            25 37  340/ 24/ 34 1013.8
EXECUTION ROCKS  NOT AVBL
CENTRAL LI SOUND 2100            26     280/ 25/ 35   N/A           5/ 5
EASTERN LI SOUND 2100            27 41  290/ 21/ 33   N/A
ROBBINS REEF     2100            23     290/ 23/ 27 1014.1
$$


>>>>>>>>>>>>>>>>>>>>>>>>>>>> KEY <<<<<<<<<<<<<<<<<<<<<<<<<<<
>                                                          <
>     SKY/WX - SKY CONDITION/PRESENT WEATHER               <
>     TMP    - TEMPERATURE IN FAHRENHEIT                   <
>     DP     - DEWPOINT IN FAHRENHEIT                      <
>     RH     - RELATIVE HUMIDITY IN PERCENT                <
>     WIND   - DIRECTION AND SPEED IN MPH                  <
>     PRES   - MEAN SEA LEVEL PRESSURE IN INCHES OF HG     <
>     WCI    - WIND CHILL INDEX                            <
>     VSB    - VISIBILITY IN MILES                         <
>     HX     - HEAT INDEX                                  <
>     TC     - TEMPERATURE IN CELSIUS                      <
>     VRB    - VARIABLE WIND DIRECTION                     <
>                                                          <
>>>>>>>>>>>>>>>>>>>>>>>>>>>> KEY <<<<<<<<<<<<<<<<<<<<<<<<<<<






USA.gov is the U.S. government's official web portal to all federal, state and local government web resources and services.